Regional Weather Roundup
Issued by NWS

Home | Current Version | Previous Version | Text Only | Print | Product List | Glossary Off
Versions: 1 2 3 4 5 6 7 8 9 10 11 12 13 14 15 16 17 18 19 20 21 22 23 24 25 26 27 28 29 30 31 32 33 34 35 36 37 38 39 40 41 42 43 44 45 46 47 48 49 50

000
ASUS43 KMKX 210059
RWRWI

WISCONSIN REGIONAL WEATHER ROUNDUP
NATIONAL WEATHER SERVICE MILWAUKEE/SULLIVAN WI
700 PM CST TUE FEB 20 2018

NOTE: "FAIR" INDICATES FEW OR NO CLOUDS BELOW 12,000 FEET WITH NO
SIGNIFICANT WEATHER AND/OR OBSTRUCTIONS TO VISIBILITY.

WIZ001-002-006>008-014>016-023>028-210200-
NORTHWEST WISCONSIN

CITY           SKY/WX    TMP DP  RH WIND       PRES   REMARKS
SUPERIOR ARPT  FAIR      15   6  69 W8        30.12R WCI   3
ASHLAND        CLOUDY    15  10  80 SW9       30.09R WCI   3
HAYWARD        FAIR      15   9  76 SW3       30.08R
SIREN          FAIR      16   7  66 W7        30.12R WCI   7
CUMBERLAND     FAIR      14   9  79 W6        30.09R WCI   5
RICE LAKE      FAIR      16  11  80 W5        30.11R WCI   9
CHETEK         FAIR      17  11  80 W6        30.10R WCI   8
LADYSMITH      CLOUDY    19  14  82 W14       30.08R WCI   5
EAU CLAIRE     NOT AVBL
MENOMONIE      CLOUDY    19  12  74 W9        30.14R WCI   9
NEW RICHMOND   FAIR      17   8  68 W7        30.14R WCI   7
OSCEOLA        FAIR      18   8  66 W12       30.17R WCI   5
$$

WIZ003>005-009-010-017-018-210200-
NORTH CENTRAL WISCONSIN

CITY           SKY/WX    TMP DP  RH WIND       PRES   REMARKS
MANITOWISH WTR CLOUDY    19  19 100 W8        29.97R WCI   9
ARBOR VITAE    CLOUDY    22  20  93 NW7       29.96R FOG     WCI  13
WOODRUFF       CLOUDY    22  20  93 NW7       29.96R FOG     WCI  13
RHINELANDER    CLOUDY    22  21  96 W12G22    29.96R WCI  10
EAGLE RIVER    CLOUDY    21  20  94 NW9       29.95R WCI  11
LAND O LAKES   CLOUDY    21  19  91 NW9       29.97R WCI  10
PHILLIPS       CLOUDY    18  16  90 NW6       30.01R WCI  10
TOMAHAWK       CLOUDY    21  19  91 W10G16    29.98R WCI  10
MEDFORD        CLOUDY    20  17  88 W10G18    30.01R WCI   8
MERRILL        CLOUDY    23  21  91 W7        30.01R WCI  15
$$

WIZ029-030-035-036-043>047-210200-
CENTRAL WISCONSIN

CITY           SKY/WX    TMP DP  RH WIND       PRES   REMARKS
WAUSAU         CLOUDY    23  19  85 W12       30.01R WCI  12
MOSINEE        CLOUDY    23  21  93 W13       30.03R WCI  11
MARSHFIELD     CLOUDY    21  17  84 NW17      30.04R WCI   7
STEVENS POINT  CLOUDY    22  21  95 NW5       30.03R WCI  16
WAUPACA        CLOUDY    29  23  79 W12G17    30.06R WCI  19
WAUTOMA        CLOUDY    26  22  84 W15       30.08R WCI  14
WISC RAPIDS    CLOUDY    24  18  77 NW13G21   30.08R WCI  12
CAMP DOUGLAS   NOT AVBL
$$

WIZ011>013-019>022-031-037>040-048>050-210200-
NORTHEAST WISCONSIN

CITY           SKY/WX    TMP DP  RH WIND       PRES   REMARKS
ANTIGO         CLOUDY    23  22  94 NW13G18   29.96R WCI  11
SHAWANO        CLOUDY    30  25  83 W7G20     30.00R WCI  23
OCONTO         CLOUDY    32  30  92 W8        29.97R WCI  25
STURGEON BAY   CLOUDY    33  30  88 W15       29.98R WCI  23
GREEN BAY      CLOUDY    32  26  78 W17       30.02R WCI  21
MANITOWOC      CLOUDY    34  30  85 W15       30.02R WCI  24
APPLETON       CLOUDY    28  25  86 W17       30.01R WCI  16
CLINTONVILLE   CLOUDY    28  22  80 W16       30.03R WCI  15
OSHKOSH        CLOUDY    30  25  81 W12G24    30.04R WCI  20
$$

WIZ032>034-041-042-053>061-210200-
SOUTHWEST WISCONSIN

CITY           SKY/WX    TMP DP  RH WIND       PRES   REMARKS
LA CROSSE      CLOUDY    23  17  78 NW16      30.16R WCI  10
SPARTA         CLOUDY    23  20  89 W9        30.12R WCI  13
VIROQUA        CLOUDY    23  23 100 NW9       30.09R WCI  13
BOSCOBEL       CLOUDY    28  19  69 W8        30.15R WCI  20
PRAIRIE DU CHI CLOUDY    26  19  74 W15       30.15R WCI  13
PLATTEVILLE    CLOUDY    28  25  89 W10       30.12R WCI  18
$$

WIZ056-057-062-063-064-067-068-210200-
SOUTH CENTRAL WISCONSIN

CITY           SKY/WX    TMP DP  RH WIND       PRES   REMARKS
REEDSBURG      CLOUDY    26  23  86 W13       30.09R WCI  15
BARABOO/DELLS  CLOUDY    27  24  86 W10G18    30.08R WCI  17
LONE ROCK      NOT AVBL
MINERAL POINT  CLOUDY    30  28  93 W16G22    30.08R WCI  19
MADISON        CLOUDY    30  26  85 NW7       30.08R WCI  23
MIDDLETON      CLOUDY    32  28  86 W12       30.07R WCI  23
WATERTOWN      CLOUDY    33  32  96 W14       30.03R WCI  23
MONROE         CLOUDY    30  28  93 W16       30.07R WCI  19
JANESVILLE     CLOUDY    34  34 100 W14       30.05R WCI  24
$$

WIZ051-052-058>065-066-070>072-210200-
SOUTHEAST WISCONSIN

CITY           SKY/WX    TMP DP  RH WIND       PRES   REMARKS
MILWAUKEE      MOCLDY    38  35  89 W12       30.01R WCI  30
WAUKESHA       CLOUDY    34  30  86 W15       30.03R WCI  24
MILWAUKEE/TIMM CLOUDY    36  30  80 W10G18    30.03R WCI  28
RACINE         CLOUDY    37  36  96 W8        30.02R WCI  31
BURLINGTON     CLOUDY    35  32  90 W6        30.01S WCI  30
KENOSHA        CLOUDY    37  34  89 W10       30.01R WCI  30
FOND DU LAC    CLOUDY    32  26  78 W14G24    30.05R WCI  22
SHEBOYGAN      CLOUDY    34  32  92 W13       30.01R WCI  25
WEST BEND      CLOUDY    34  34 100 W8        30.01R WCI  27
JUNEAU         CLOUDY    31  29  90 W9        30.04R WCI  23
$$

LSZ147-162-210200-
LAKE SUPERIOR

STATION/POSITION TIME  TEMP    WIND        PRES    WAVE
                       AIR SEA DIR/SP/G            HT/PER
                 (UTC) (F)     (DEG/KT/KT) (MB)    (FT/S)
DEVILS ISLAND    2300   19     240/ 14/ 17 1016.5R
SAXON HARBOR     2340   20     250/ 10/ 13 1016.3R
$$

LMZ867-665-643>646-210200-
LAKE MICHIGAN

STATION/POSITION TIME  TEMP    WIND        PRES    WAVE
                       AIR SEA DIR/SP/G            HT/PER
                 (UTC) (F)     (DEG/KT/KT) (MB)    (FT/S)
NORTHPORT PIER   2340   33                 1012.2R
KEWAUNEE LAKESHO 0024   35     270/  7/  9 1014.2
SHEBOYGAN LAKESH 2300   36     260/  7/  8 1013.4R
PORT WASHINGTON  2340   37     240/  4/  7 1016.6R
MILWAUKEE LAKESH 0030   38     280/  9/ 11   N/A
KENOSHA   LAKESH 2300   42     270/ 13/ 17 1015.2
$$

TC  - TEMPERATURE IN CELSIUS
VSB - VISIBILITY IN STATUTE MILES
WCI - WIND CHILL INDEX
HX  - HEAT INDEX




USA.gov is the U.S. government's official web portal to all federal, state and local government web resources and services.